This is the latest recevied weather packets stored in our database for station/object VK3PBR-10. If no packets are shown the sender has not sent any weather packets the latest 10 day(s).
| Time | Temp. | Humidity | Pressure | Rain* | Wind** | Luminosity | Snow |
|---|---|---|---|---|---|---|---|
| 1787918514 | 12.78° C | 66% | 1034.5 hPa | - | - | - | - |
| 1787917614 | 14.44° C | 66% | 1034.4 hPa | - | - | - | - |
| 1787916714 | 15° C | 65% | 1034.5 hPa | - | - | - | - |
| 1787915814 | 15° C | 65% | 1034.4 hPa | - | - | - | - |
| 1787914914 | 14.44° C | 66% | 1034.4 hPa | - | - | - | - |
| 1787914013 | 13.89° C | 67% | 1034.1 hPa | - | - | - | - |
| 1787913113 | 13.33° C | 67% | 1033.8 hPa | - | - | - | - |
| 1787912213 | 14.44° C | 67% | 1033.7 hPa | - | - | - | - |
| 1787911312 | 13.89° C | 67% | 1033.7 hPa | - | - | - | - |
| 1787910412 | 14.44° C | 67% | 1033.6 hPa | - | - | - | - |
| 1787909512 | 13.89° C | 67% | 1033.6 hPa | - | - | - | - |
| 1787908612 | 14.44° C | 66% | 1033.4 hPa | - | - | - | - |
| 1787907712 | 15° C | 66% | 1033.3 hPa | - | - | - | - |
| 1787906812 | 15° C | 65% | 1033.2 hPa | - | - | - | - |
| 1787905911 | 15° C | 66% | 1033.2 hPa | - | - | - | - |
| 1787905011 | 15° C | 65% | 1033 hPa | - | - | - | - |
| 1787904110 | 15.56° C | 65% | 1032.8 hPa | - | - | - | - |
| 1787903210 | 15.56° C | 64% | 1032.8 hPa | - | - | - | - |
| 1787902309 | 16.11° C | 63% | 1032.6 hPa | - | - | - | - |
| 1787901409 | 16.11° C | 63% | 1032.4 hPa | - | - | - | - |
| 1787900509 | 16.11° C | 63% | 1032.4 hPa | - | - | - | - |
| 1787899609 | 17.22° C | 59% | 1032.4 hPa | - | - | - | - |
| 1787898708 | 18.33° C | 56% | 1032.1 hPa | - | - | - | - |
| 1787897808 | 19.44° C | 57% | 1032.2 hPa | - | - | - | - |
| 1787896908 | 18.33° C | 58% | 1032.4 hPa | - | - | - | - |
* Rain since midnight (hover to see other rain measurements)
** Current wind speed in m/s (hover to see current wind gust speed)